Skip Page Navigation
NASA JPL Caltech
NASA Logo - Jet Propulsion Laboratory + View the NASA Portal
+ Center for Near-Earth Object Studies
JPL Home Earth Solar System Stars & Galaxies Technology
JPL Solar System Dynamics
BODIES ORBITS EPHEMERIDES TOOLS PHYSICAL DATA DISCOVERY FAQ SITE MAP
JPL Small-Body Database Browser
Search: [ help ]  
17467 (1990 VE6)
Classification: Main-belt Asteroid          SPK-ID: 2017467
Ephemeris | Orbit Diagram | Orbital Elements | Mission Design | Physical Parameters | Discovery Circumstances | Close-Approach Data ]

[ show orbit diagram ]
Orbital Elements at Epoch 2459000.5 (2020-May-31.0) TDB
Reference: JPL 22 (heliocentric ecliptic J2000)
 Element Value Uncertainty (1-sigma)   Units 
e .08748415327402059 4.3407e-08  
a 3.023456060490561 1.9411e-08 au
q 2.758951567077339 1.2914e-07 au
i 10.48777700439824 4.8368e-06 deg
node 201.8111614079948 2.0693e-05 deg
peri 197.3878687961642 3.0573e-05 deg
M 248.5835434504218 2.4632e-05 deg
tp 2459594.793199229108
(2022-Jan-15.29319923)
0.00013407 TDB
period 1920.232956136755
5.26
1.8492e-05
5.063e-08
d
yr
n .1874772531371769 1.8054e-09 deg/d
Q 3.287960553903784 2.1109e-08 au
  Orbit Determination Parameters
   # obs. used (total)      1447  
   data-arc span      10794 days (29.55 yr)  
   first obs. used      1990-11-15  
   last obs. used      2020-06-04  
   planetary ephem.      DE431  
   SB-pert. ephem.      SB431-N16  
   condition code      0  
   norm. resid. RMS      .533  
   source      ORB  
   producer      Otto Matic  
   solution date      2020-Jun-23 18:10:37  

Additional Information
 Earth MOID = 1.76767 au 
 Jupiter MOID = 2.14324 au 
 T_jup = 3.214 
[ show covariance matrix ]

Ephemeris | Orbit Diagram | Orbital Elements | Mission Design | Physical Parameters | Discovery Circumstances | Close-Approach Data ]

Physical Parameter Table
Parameter Symbol Value Units Sigma Reference Notes
absolute magnitude H 13.5   n/a MPO302172  
diameter diameter 6.960 km 0.240 urn:nasa:pds:neowise_diameters_albedos::2.0[mainbelt] (http://adsabs.harvard.edu/abs/2011ApJ...741...68M)  
geometric albedo albedo 0.110   0.008 urn:nasa:pds:neowise_diameters_albedos::2.0[mainbelt] (http://adsabs.harvard.edu/abs/2011ApJ...741...68M)  

17467 (1990 VE6)          Discovered 1990-Nov-15 by Elst, E. W. at La Silla
Reference: 20001013/Numbers.arcLast Updated: 2004-04-19

[ show close-approach data ]
Alternate Designations
 1990 VE6 = 1998 HK76 
Ephemeris | Orbit Diagram | Orbital Elements | Mission Design | Physical Parameters | Discovery Circumstances | Close-Approach Data ]
ABOUT SSD CREDITS/AWARDS PRIVACY/COPYRIGHT GLOSSARY LINKS
FirstGov 2020-Aug-03 19:19 UT
(server date/time)  
NASA Home Page
Site Manager:   Ryan S. Park
Webmaster  Alan B. Chamberlin